Location: Unspecified
(0.0000°N, 0.0000°E)
Time: 04:11:40
(UTC+02:00)

Cosmos 2228 - Visible Passes

Search period start: 20 June 2018 00:00
Search period end: 30 June 2018 00:00
Orbit: 590 x 619 km, 82.5° (Epoch: 19 June)

Date Brightness Start Highest point End Pass type
(mag) Time Alt. Az. Time Alt. Az. Time Alt. Az.
20 Jun 3.2 21:52:25 10° N 21:56:36 70° WNW 21:56:36 70° WNW visible
21 Jun 4.5 22:05:27 10° NNW 22:09:27 34° W 22:10:04 33° WSW visible
22 Jun 4.6 20:41:59 10° NE 20:44:50 17° E 20:46:41 13° ESE visible
22 Jun 5.5 22:19:06 10° NW 22:22:06 18° W 22:23:35 16° WSW visible
23 Jun 3.8 20:53:34 10° NNE 20:57:29 32° E 21:00:14 17° SE visible
24 Jun 3.0 21:05:48 10° N 21:10:09 66° E 21:13:51 14° SSE visible
25 Jun 3.5 21:18:29 10° NNW 21:22:48 60° W 21:27:07 10° S visible
26 Jun 4.9 21:31:38 10° NNW 21:35:27 30° W 21:39:17 10° SSW visible
27 Jun 5.9 21:45:30 10° WNW 21:48:07 16° W 21:50:43 10° SW visible
29 Jun 3.0 20:31:48 10° N 20:36:10 77° E 20:40:31 10° S visible
